Anniston, AL

3:08 PM CDT on June 26, 2017 (GMT -0500)
Anniston Metro

Weather History for KANB - May, 2012

Change the Weather History Date:

Tuesday, May 29, 2012

  Actual Average Record
Temperature  
Mean Temperature 80 °F 73 °F  
Max Temperature 93 °F 84 °F 94 °F (1904)
Min Temperature 67 °F 63 °F 48 °F (1951)
Cooling Degree Days 14    
Growing Degree Days 30 (Base 50)    
Moisture  
Dew Point 67 °F    
Average Humidity 66    
Maximum Humidity 93    
Minimum Humidity 38    
Precipitation  
Precipitation 0.53 in 0.13 in 1.67 in (2005)
Month to date precipitation 3.10 4.00  
Year to date precipitation 17.04 22.67  
Sea Level Pressure  
Sea Level Pressure 29.86 in    
Wind  
Wind Speed 5 mph (NE)    
Max Wind Speed 25 mph    
Max Gust Speed 40 mph    
Visibility 9 miles    
Events Rain , Thunderstorm    
T = Trace of Precipitation, MM = Missing Value Source: NWS Daily Summary

Daily Weather History Graph

Daily Weather History Graph

Search for Another Location

Airport or City:

Trip Planner

Search our weather history database for the weather conditions in past years. The results will help you decide how hot, cold, wet, or windy it might be!

Date:

Astronomy

May. 29, 2012 Rise Set
Actual Time 5:35 AM CDT 7:47 PM CDT
Civil Twilight 5:06 AM CDT 8:15 PM CDT
Nautical Twilight 4:32 AM CDT 8:50 PM CDT
Astronomical Twilight 3:54 AM CDT 9:27 PM CDT
Moon 1:33 PM CDT (5/29) 1:09 AM CDT (5/29)
Length of Visible Light 15h 08m
Length of Day
14h 12m
First Quarter, 59% of the Moon is Illuminated
May 29
First Quarter
Jun 4
Full
Jun 11
Last Quarter
Jun 19
New
Jun 26
First Quarter

Hourly Weather History & Observations

Time (CDT) Temp. Heat Index Dew Point Humidity Pressure Visibility Wind Dir Wind Speed Gust Speed Precip Events Conditions
12:53 AM 73.9 °F - 66.9 °F 79% 29.88 in 10.0 mi East 4.6 mph - N/A   Clear
1:53 AM 73.0 °F - 66.9 °F 81% 29.88 in 10.0 mi NE 3.5 mph - N/A   Clear
2:13 AM 73.4 °F - 66.2 °F 78% 29.90 in 10.0 mi ENE 5.8 mph - N/A   Mostly Cloudy
2:43 AM 73.4 °F - 66.2 °F 78% 29.90 in 10.0 mi NE 5.8 mph - N/A   Scattered Clouds
2:53 AM 73.0 °F - 66.9 °F 81% 29.86 in 10.0 mi ENE 8.1 mph - N/A   Clear
3:53 AM 71.1 °F - 66.9 °F 87% 29.87 in 10.0 mi Calm Calm - N/A   Clear
4:53 AM 70.0 °F - 66.9 °F 90% 29.89 in 10.0 mi East 3.5 mph - N/A   Clear
5:53 AM 68.0 °F - 66.9 °F 96% 29.91 in 10.0 mi Calm Calm - N/A   Clear
6:53 AM 71.1 °F - 68.0 °F 90% 29.91 in 10.0 mi Calm Calm - N/A   Clear
7:53 AM 75.0 °F - 69.1 °F 82% 29.91 in 10.0 mi Variable 4.6 mph - N/A   Clear
8:53 AM 79.0 °F - 69.1 °F 72% 29.91 in 10.0 mi East 6.9 mph - N/A   Partly Cloudy
9:53 AM 82.0 °F 84.1 °F 66.0 °F 58% 29.89 in 10.0 mi NE 4.6 mph - N/A   Mostly Cloudy
10:53 AM 84.9 °F 87.1 °F 66.0 °F 53% 29.88 in 10.0 mi Variable 5.8 mph - N/A   Scattered Clouds
11:53 AM 86.0 °F 87.3 °F 64.0 °F 48% 29.86 in 10.0 mi North 9.2 mph - N/A   Clear
12:53 PM 89.1 °F 90.0 °F 63.0 °F 42% 29.84 in 10.0 mi Variable 6.9 mph - N/A   Clear
1:53 PM 91.0 °F 92.6 °F 64.0 °F 41% 29.82 in 10.0 mi NNE 6.9 mph - N/A   Partly Cloudy
2:53 PM 91.9 °F 93.3 °F 64.0 °F 39% 29.80 in 10.0 mi NW 5.8 mph - N/A   Clear
3:53 PM 91.9 °F 92.5 °F 62.1 °F 37% 29.78 in 10.0 mi NNE 10.4 mph 16.1 mph N/A   Mostly Cloudy
4:53 PM 90.0 °F 90.6 °F 63.0 °F 40% 29.78 in 10.0 mi WNW 4.6 mph - N/A   Mostly Cloudy
5:53 PM 86.0 °F 88.2 °F 66.0 °F 51% 29.78 in 10.0 mi NE 6.9 mph - N/A   Overcast
6:53 PM 84.9 °F 87.6 °F 66.9 °F 55% 29.79 in 10.0 mi Calm Calm - N/A   Mostly Cloudy
7:53 PM 81.0 °F 83.8 °F 68.0 °F 65% 29.79 in 10.0 mi SW 6.9 mph - N/A   Clear
8:53 PM 79.0 °F - 70.0 °F 74% 29.81 in 10.0 mi Calm Calm - N/A   Mostly Cloudy
9:53 PM 75.9 °F - 69.1 °F 79% 29.81 in 10.0 mi Calm Calm - N/A   Clear
10:35 PM 75.2 °F - 68.0 °F 78% 29.90 in 10.0 mi NW 18.4 mph 40.3 mph N/A Thunderstorm Scattered Clouds
10:53 PM 70.0 °F - 68.0 °F 93% 29.89 in 1.8 mi North 17.3 mph 21.9 mph 0.23 in Rain , Thunderstorm Heavy Rain
10:59 PM 69.8 °F - 68.0 °F 94% 29.92 in 1.5 mi North 13.8 mph 25.3 mph N/A Rain , Thunderstorm Heavy Rain
11:08 PM 69.8 °F - 68.0 °F 94% 29.91 in 3.0 mi NNE 12.7 mph 23.0 mph 0.23 in Rain , Thunderstorm Rain
11:21 PM 69.8 °F - 68.0 °F 94% 29.91 in 8.0 mi NNE 6.9 mph - 0.25 in Rain , Thunderstorm Light Rain
11:53 PM 70.0 °F - 69.1 °F 97% 29.88 in 7.0 mi East 5.8 mph - 0.28 in Rain Light Rain